Torna al catalogo

CZ-6A DEB

AttivoPO
NORAD 61803·DEBRIS·🇨🇳 China

Lanciato Aug 6, 2024 da Taiyuan Satellite Launch Center

Loading…

Prossimi Passaggi (prossime 24 ore)

TLE

AggiornatoSource: Space-Track

Epoca: Sep 14, 2026, 10:57 UTC

1 61803U 24140ABT 26257.45658342  .00000390  00000-0  18707-3 0  9996
2 61803  88.9772 263.5251 0064333 251.5823 107.8363 14.16069842104891

Traccia CZ-6A DEB in tempo reale con AllMySat

Download on the App Store